When you browse on this site, cookies collect data to enhance your experience and personalize the content and advertising you see.
Visit our Privacy Policy to learn more. By continuing to use the site, you agree to this use of cookies and data.
  • In Latvia
  • List of Countries
  • For 7 days
  • Water Temperature
  • Weather Map
  • Weather Widgets
  • user-avatar
    Login

    Hourly Weather Vladimirovka

    Today, 22 August, Thursday

    Time Temperature Precipitation Wind Pressure Humidity
    00:00 +20°C° 0 mm 2 mps 745 mmHg 86%
    01:00 +20°C° 0 mm 2 mps 745 mmHg 87%
    02:00 +20°C° 0 mm 2 mps 744 mmHg 89%
    03:00 +20°C° 0 mm 2 mps 744 mmHg 89%
    04:00 +19°C° 0 mm 2 mps 744 mmHg 90%
    05:00 +19°C° 0 mm 2 mps 744 mmHg 90%
    06:00 +19°C° 0 mm 2 mps 743 mmHg 90%
    07:00 +21°C° 0 mm 2 mps 744 mmHg 84%
    08:00 +23°C° 0 mm 2 mps 744 mmHg 79%
    09:00 +25°C° 0 mm 2 mps 744 mmHg 73%
    10:00 +26°C° 0.1 mm 2 mps 744 mmHg 69%
    11:00 +27°C° 0.1 mm 2 mps 743 mmHg 66%
    12:00 +28°C° 0.1 mm 2 mps 743 mmHg 62%
    13:00 +28°C° 0.5 mm 2 mps 743 mmHg 62%
    14:00 +28°C° 0.5 mm 3 mps 744 mmHg 63%
    15:00 +28°C° 0.5 mm 3 mps 744 mmHg 63%
    16:00 +26°C° 0.8 mm 4 mps 744 mmHg 70%
    17:00 +25°C° 0.8 mm 4 mps 744 mmHg 76%
    18:00 +22°C° 0.8 mm 5 mps 744 mmHg 83%
    19:00 +21°C° 0 mm 5 mps 744 mmHg 84%
    20:00 +20°C° 0 mm 4 mps 745 mmHg 86%
    21:00 +18°C° 0 mm 4 mps 745 mmHg 87%
    22:00 +18°C° 0 mm 4 mps 745 mmHg 88%
    23:00 +17°C° 0 mm 4 mps 746 mmHg 88%

    Tomorrow, 23 August, Friday

    Time Temperature Precipitation Wind Pressure Humidity
    00:00 +15°C° 0 mm 4 mps 746 mmHg 88%
    01:00 +15°C° 0 mm 4 mps 746 mmHg 89%
    02:00 +14°C° 0 mm 4 mps 747 mmHg 90%
    03:00 +13°C° 0 mm 4 mps 747 mmHg 91%
    04:00 +13°C° 0 mm 3 mps 747 mmHg 92%
    05:00 +13°C° 0 mm 3 mps 747 mmHg 92%
    06:00 +12°C° 0 mm 3 mps 747 mmHg 93%
    07:00 +14°C° 0 mm 3 mps 747 mmHg 89%
    08:00 +16°C° 0 mm 3 mps 748 mmHg 84%
    09:00 +17°C° 0 mm 4 mps 748 mmHg 80%
    10:00 +18°C° 0 mm 4 mps 748 mmHg 74%
    11:00 +19°C° 0 mm 3 mps 748 mmHg 68%
    12:00 +21°C° 0 mm 3 mps 748 mmHg 63%
    13:00 +21°C° 0 mm 3 mps 748 mmHg 60%
    14:00 +21°C° 0 mm 3 mps 748 mmHg 58%
    15:00 +22°C° 0 mm 3 mps 748 mmHg 55%
    16:00 +22°C° 0 mm 3 mps 748 mmHg 59%
    17:00 +21°C° 0 mm 2 mps 748 mmHg 63%
    18:00 +21°C° 0 mm 2 mps 747 mmHg 67%
    19:00 +19°C° 0 mm 2 mps 748 mmHg 70%
    20:00 +17°C° 0 mm 2 mps 748 mmHg 73%
    21:00 +16°C° 0 mm 1 mps 748 mmHg 76%
    22:00 +15°C° 0 mm 1 mps 748 mmHg 77%
    23:00 +15°C° 0 mm 1 mps 748 mmHg 78%

    Day after tomorrow, 24 August, Saturday

    Time Temperature Precipitation Wind Pressure Humidity
    00:00 +14°C° 0 mm 1 mps 748 mmHg 79%
    01:00 +14°C° 0 mm 1 mps 748 mmHg 80%
    02:00 +14°C° 0 mm 1 mps 748 mmHg 82%
    03:00 +13°C° 0 mm 1 mps 748 mmHg 83%
    04:00 +13°C° 0 mm 1 mps 748 mmHg 84%
    05:00 +13°C° 0 mm 1 mps 748 mmHg 84%
    06:00 +13°C° 0 mm 1 mps 748 mmHg 84%
    07:00 +15°C° 0 mm 1 mps 748 mmHg 78%
    08:00 +16°C° 0 mm 1 mps 748 mmHg 72%
    09:00 +19°C° 0 mm 1 mps 748 mmHg 66%
    10:00 +20°C° 0 mm 1 mps 748 mmHg 62%
    11:00 +22°C° 0 mm 1 mps 748 mmHg 58%
    12:00 +23°C° 0 mm 1 mps 748 mmHg 54%
    13:00 +23°C° 0 mm 1 mps 748 mmHg 52%
    14:00 +24°C° 0 mm 2 mps 748 mmHg 51%
    15:00 +24°C° 0 mm 2 mps 747 mmHg 49%
    16:00 +23°C° 0 mm 2 mps 747 mmHg 53%
    17:00 +23°C° 0 mm 2 mps 747 mmHg 57%
    18:00 +23°C° 0 mm 2 mps 746 mmHg 62%
    19:00 +20°C° 0 mm 2 mps 746 mmHg 66%
    20:00 +18°C° 0 mm 2 mps 746 mmHg 70%
    21:00 +17°C° 0 mm 2 mps 746 mmHg 74%
    22:00 +16°C° 0 mm 2 mps 746 mmHg 76%
    23:00 +16°C° 0 mm 2 mps 746 mmHg 78%

    25 August, Sunday

    Time Temperature Precipitation Wind Pressure Humidity
    00:00 +15°C° 0 mm 2 mps 746 mmHg 80%
    01:00 +15°C° 0 mm 2 mps 746 mmHg 82%
    02:00 +15°C° 0 mm 2 mps 746 mmHg 84%
    03:00 +14°C° 0 mm 2 mps 746 mmHg 87%
    04:00 +14°C° 0 mm 2 mps 746 mmHg 88%
    05:00 +14°C° 0 mm 2 mps 746 mmHg 89%
    06:00 +14°C° 0 mm 2 mps 745 mmHg 90%
    07:00 +15°C° 0 mm 2 mps 745 mmHg 86%
    08:00 +17°C° 0 mm 3 mps 745 mmHg 81%
    09:00 +19°C° 0 mm 3 mps 746 mmHg 76%
    10:00 +20°C° 0 mm 3 mps 746 mmHg 72%
    11:00 +21°C° 0 mm 3 mps 746 mmHg 67%
    12:00 +24°C° 0 mm 3 mps 746 mmHg 62%
    13:00 +23°C° 0.1 mm 4 mps 745 mmHg 62%
    14:00 +23°C° 0.1 mm 4 mps 745 mmHg 63%
    15:00 +23°C° 0.1 mm 4 mps 745 mmHg 63%
    16:00 +22°C° 0.1 mm 4 mps 745 mmHg 66%
    17:00 +22°C° 0.1 mm 3 mps 745 mmHg 70%
    18:00 +21°C° 0.1 mm 3 mps 745 mmHg 73%
    19:00 +20°C° 0 mm 2 mps 745 mmHg 76%
    20:00 +18°C° 0 mm 2 mps 745 mmHg 78%
    21:00 +18°C° 0 mm 1 mps 746 mmHg 81%
    22:00 +16°C° 0 mm 1 mps 746 mmHg 80%
    23:00 +16°C° 0 mm 1 mps 746 mmHg 80%

    26 August, Monday

    Time Temperature Precipitation Wind Pressure Humidity
    00:00 +15°C° 0 mm 1 mps 747 mmHg 79%
    01:00 +15°C° 0 mm 1 mps 747 mmHg 81%
    02:00 +14°C° 0 mm 1 mps 747 mmHg 82%
    03:00 +14°C° 0 mm 1 mps 747 mmHg 83%
    04:00 +13°C° 0 mm 2 mps 747 mmHg 84%
    05:00 +13°C° 0 mm 2 mps 748 mmHg 86%
    06:00 +13°C° 0 mm 2 mps 748 mmHg 88%
    07:00 +14°C° 0 mm 2 mps 748 mmHg 83%
    08:00 +16°C° 0 mm 2 mps 749 mmHg 78%
    09:00 +17°C° 0 mm 2 mps 749 mmHg 73%
    10:00 +18°C° 0 mm 2 mps 749 mmHg 68%
    11:00 +19°C° 0 mm 2 mps 749 mmHg 63%
    12:00 +20°C° 0 mm 2 mps 750 mmHg 59%
    13:00 +21°C° 0 mm 2 mps 749 mmHg 56%
    14:00 +22°C° 0 mm 1 mps 749 mmHg 54%
    15:00 +23°C° 0 mm 1 mps 749 mmHg 51%
    16:00 +22°C° 0 mm 1 mps 749 mmHg 54%
    17:00 +22°C° 0 mm 1 mps 749 mmHg 58%
    18:00 +22°C° 0 mm 1 mps 748 mmHg 61%
    19:00 +20°C° 0 mm 1 mps 748 mmHg 64%
    20:00 +19°C° 0 mm 1 mps 748 mmHg 67%
    21:00 +16°C° 0 mm 2 mps 748 mmHg 71%
    22:00 +15°C° 0 mm 2 mps 748 mmHg 72%
    23:00 +15°C° 0 mm 2 mps 749 mmHg 74%

    27 August, Tuesday

    Time Temperature Precipitation Wind Pressure Humidity
    00:00 +15°C° 0 mm 2 mps 749 mmHg 76%
    01:00 +14°C° 0 mm 2 mps 749 mmHg 76%
    02:00 +14°C° 0 mm 2 mps 748 mmHg 77%
    03:00 +14°C° 0 mm 2 mps 748 mmHg 77%
    04:00 +14°C° 0 mm 2 mps 748 mmHg 76%
    05:00 +14°C° 0 mm 2 mps 748 mmHg 76%
    06:00 +14°C° 0 mm 2 mps 748 mmHg 75%
    07:00 +16°C° 0 mm 2 mps 748 mmHg 72%
    08:00 +17°C° 0 mm 3 mps 748 mmHg 69%
    09:00 +18°C° 0 mm 3 mps 748 mmHg 66%
    10:00 +19°C° 0 mm 3 mps 748 mmHg 66%
    11:00 +19°C° 0 mm 2 mps 748 mmHg 66%
    12:00 +20°C° 0 mm 2 mps 748 mmHg 66%
    13:00 +20°C° 0 mm 2 mps 748 mmHg 64%
    14:00 +21°C° 0 mm 2 mps 747 mmHg 63%
    15:00 +21°C° 0 mm 2 mps 747 mmHg 61%
    16:00 +23°C° 0 mm 2 mps 747 mmHg 63%
    17:00 +23°C° 0 mm 2 mps 747 mmHg 65%
    18:00 +23°C° 0 mm 1 mps 747 mmHg 67%
    19:00 +21°C° 0 mm 1 mps 747 mmHg 70%
    20:00 +20°C° 0 mm 1 mps 747 mmHg 74%
    21:00 +18°C° 0 mm 1 mps 747 mmHg 77%
    22:00 +18°C° 0 mm 1 mps 747 mmHg 79%
    23:00 +18°C° 0 mm 1 mps 747 mmHg 80%
    Show more